,,,PA_Meas_PMT16A,,PR_Meas_QMR101_102,,RH_Meas_QMH101,,SR_Meas_QMS101,,TA_Meas_QMH101,,GenWind,,GenWind,
date,time,status,PA,status,PR,status,RH,status,SR,status,TA,status,DirAvg,status,SpdAvg,
2009-04-18, 00:00:04,VALID,1004.19,VALID,0,VALID,83.5057,VALID,0,VALID,25.3584,VALID,39,VALID,0.186719,
2009-04-18, 00:01:04,VALID,1004.18,VALID,0,VALID,83.315,VALID,0,VALID,25.3565,VALID,39,VALID,0.351563,
2009-04-18, 00:02:04,VALID,1004.12,VALID,0,VALID,82.6284,VALID,0,VALID,25.4344,VALID,34,VALID,0.705859,
2009-04-18, 00:03:04,VALID,1004.12,VALID,0,VALID,82.4835,VALID,0,VALID,25.5123,VALID,17,VALID,0.591797,
2009-04-18, 00:04:04,VALID,1004.11,VALID,0,VALID,82.1936,VALID,0.100563,VALID,25.5707,VALID,23,VALID,0.415234,
2009-04-18, 00:05:04,VALID,1004.11,VALID,0,VALID,82.041,VALID,0.100563,VALID,25.5902,VALID,35,VALID,0.537109,
2009-04-18, 00:06:04,VALID,1004.09,VALID,0,VALID,82.369,VALID,0.100563,VALID,25.6097,VALID,37,VALID,0.203125,
2009-04-18, 00:07:04,VALID,1004.09,VALID,0,VALID,82.7734,VALID,0,VALID,25.5123,VALID,47,VALID,0.378516,
2009-04-18, 00:08:04,VALID,1004.06,VALID,0,VALID,83.4142,VALID,0,VALID,25.376,VALID,48,VALID,0.402344,
2009-04-18, 00:09:04,VALID,1004.04,VALID,0,VALID,84.0321,VALID,0,VALID,25.2397,VALID,73,VALID,0.654297,
2009-04-18, 00:10:04,VALID,1004.03,VALID,0,VALID,84.7569,VALID,0,VALID,25.0839,VALID,78,VALID,0.650391,
2009-04-18, 00:11:04,VALID,1004.04,VALID,0,VALID,85.1383,VALID,0,VALID,24.9671,VALID,78,VALID,0.431641,
2009-04-18, 00:12:04,VALID,1004.02,VALID,0,VALID,85.4511,VALID,0,VALID,24.9514,VALID,78,VALID,0.4375,
2009-04-18, 00:13:04,VALID,1004,VALID,0,VALID,85.5808,VALID,0,VALID,24.969,VALID,54,VALID,0.453906,
2009-04-18, 00:14:04,VALID,1004.01,VALID,0,VALID,85.7791,VALID,0,VALID,24.9495,VALID,54,VALID,0.471094,
2009-04-18, 00:15:04,VALID,1003.98,VALID,0,VALID,85.8936,VALID,0,VALID,24.8911,VALID,54,VALID,0.272656,
2009-04-18, 00:16:04,VALID,1003.97,VALID,0,VALID,85.9851,VALID,0,VALID,24.854,VALID,54,VALID,0.2125,
2009-04-18, 00:17:04,VALID,1003.96,VALID,0,VALID,86.0538,VALID,0,VALID,24.8327,VALID,29,VALID,0.325,
2009-04-18, 00:18:04,VALID,1003.92,VALID,0,VALID,86.4581,VALID,0,VALID,24.7937,VALID,29,VALID,0.450391,
2009-04-18, 00:19:04,VALID,1003.91,VALID,0,VALID,86.5039,VALID,0,VALID,24.7548,VALID,30,VALID,0.301172,
2009-04-18, 00:20:04,VALID,1003.87,VALID,0,VALID,86.6183,VALID,0,VALID,24.7159,VALID,30,VALID,0.0128906,
2009-04-18, 00:21:04,VALID,1003.82,VALID,0,VALID,86.8929,VALID,0,VALID,24.6769,VALID,30,VALID,0.235156,
2009-04-18, 00:22:04,VALID,1003.81,VALID,0,VALID,87.16,VALID,0,VALID,24.6574,VALID,30,VALID,0.328125,
2009-04-18, 00:23:04,VALID,1003.8,VALID,0,VALID,87.4727,VALID,0,VALID,24.6204,VALID,30,VALID,0.184766,
2009-04-18, 00:24:04,VALID,1003.77,VALID,0,VALID,87.7855,VALID,0,VALID,24.5406,VALID,34,VALID,0.475781,
2009-04-18, 00:25:04,VALID,1003.78,VALID,0,VALID,88.1059,VALID,0,VALID,24.5035,VALID,68,VALID,0.316406,
2009-04-18, 00:26:04,VALID,1003.74,VALID,0,VALID,88.3119,VALID,0,VALID,24.4433,VALID,58,VALID,0.391797,
2009-04-18, 00:27:04,VALID,1003.74,VALID,0,VALID,88.4874,VALID,0,VALID,24.4043,VALID,58,VALID,0.411719,
2009-04-18, 00:28:04,VALID,1003.74,VALID,0,VALID,88.6628,VALID,0,VALID,24.3849,VALID,58,VALID,0.214844,
2009-04-18, 00:29:04,VALID,1003.72,VALID,0,VALID,88.8383,VALID,0,VALID,24.4062,VALID,59,VALID,0.502344,
2009-04-18, 00:30:04,VALID,1003.72,VALID,0,VALID,88.9604,VALID,0,VALID,24.3654,VALID,38,VALID,0.415625,
2009-04-18, 00:31:04,VALID,1003.69,VALID,0,VALID,89.0214,VALID,0,VALID,24.3459,VALID,38,VALID,0.526172,
2009-04-18, 00:32:04,VALID,1003.71,VALID,0,VALID,89.0061,VALID,0,VALID,24.3849,VALID,39,VALID,0.569531,
2009-04-18, 00:33:04,VALID,1003.71,VALID,0,VALID,88.9985,VALID,0,VALID,24.3849,VALID,39,VALID,0.555078,
2009-04-18, 00:34:04,VALID,1003.71,VALID,0,VALID,88.9527,VALID,0,VALID,24.4043,VALID,39,VALID,0.494922,
2009-04-18, 00:35:04,VALID,1003.7,VALID,0,VALID,89.0061,VALID,0,VALID,24.3459,VALID,19,VALID,0.437891,
2009-04-18, 00:36:04,VALID,1003.69,VALID,0,VALID,89.113,VALID,0,VALID,24.3849,VALID,55,VALID,0.651172,
2009-04-18, 00:37:04,VALID,1003.7,VALID,0,VALID,89.0443,VALID,0,VALID,24.4043,VALID,46,VALID,0.664453,
2009-04-18, 00:38:04,VALID,1003.7,VALID,0,VALID,88.9756,VALID,0,VALID,24.4628,VALID,22,VALID,0.505469,
2009-04-18, 00:39:04,VALID,1003.72,VALID,0,VALID,88.7468,VALID,0,VALID,24.5406,VALID,20,VALID,0.409766,
2009-04-18, 00:40:04,VALID,1003.73,VALID,0,VALID,88.4798,VALID,0,VALID,24.5601,VALID,65,VALID,0.614062,
2009-04-18, 00:41:04,VALID,1003.71,VALID,0,VALID,88.1746,VALID,0,VALID,24.7159,VALID,10,VALID,0.712109,
2009-04-18, 00:42:04,VALID,1003.69,VALID,0,VALID,87.1218,VALID,0,VALID,24.9087,VALID,32,VALID,1.52148,
2009-04-18, 00:43:04,VALID,1003.66,VALID,0,VALID,85.802,VALID,0,VALID,25.2027,VALID,59,VALID,1.24609,
2009-04-18, 00:44:04,VALID,1003.66,VALID,0,VALID,85.1307,VALID,0,VALID,25.3195,VALID,55,VALID,0.126953,
2009-04-18, 00:45:04,VALID,1003.62,VALID,0,VALID,84.6577,VALID,0,VALID,25.3584,VALID,48,VALID,0.674609,
2009-04-18, 00:46:04,VALID,1003.59,VALID,0,VALID,84.3449,VALID,0,VALID,25.4577,VALID,5,VALID,0.441797,
2009-04-18, 00:47:04,VALID,1003.6,VALID,0,VALID,84.0855,VALID,0,VALID,25.4753,VALID,12,VALID,0.798828,
2009-04-18, 00:48:04,VALID,1003.55,VALID,0,VALID,83.8033,VALID,0,VALID,25.5142,VALID,30,VALID,0.775781,
2009-04-18, 00:49:04,VALID,1003.58,VALID,0,VALID,83.5591,VALID,0,VALID,25.5921,VALID,30,VALID,0.710156,
2009-04-18, 00:50:04,VALID,1003.54,VALID,0,VALID,82.4987,VALID,0,VALID,25.7869,VALID,17,VALID,1.42969,
2009-04-18, 00:51:04,VALID,1003.54,VALID,0,VALID,82.2241,VALID,0,VALID,25.9038,VALID,14,VALID,0.417188,
2009-04-18, 00:52:04,VALID,1003.54,VALID,0,VALID,82.041,VALID,0,VALID,25.8843,VALID,55,VALID,0.634375,
2009-04-18, 00:53:04,VALID,1003.52,VALID,0,VALID,82.102,VALID,0,VALID,25.8863,VALID,47,VALID,0.273047,
2009-04-18, 00:54:04,VALID,1003.52,VALID,0,VALID,82.1554,VALID,0,VALID,25.8453,VALID,47,VALID,0.154297,
2009-04-18, 00:55:04,VALID,1003.52,VALID,0,VALID,82.3538,VALID,0,VALID,25.8064,VALID,46,VALID,0.314844,
2009-04-18, 00:56:04,VALID,1003.49,VALID,0,VALID,82.5063,VALID,0,VALID,25.7655,VALID,46,VALID,0.376172,
2009-04-18, 00:57:04,VALID,1003.5,VALID,0,VALID,82.7123,VALID,0,VALID,25.709,VALID,46,VALID,0.255859,
2009-04-18, 00:58:04,VALID,1003.5,VALID,0,VALID,83.0022,VALID,0,VALID,25.6077,VALID,78,VALID,0.650391,
2009-04-18, 00:59:04,VALID,1003.49,VALID,0,VALID,83.2387,VALID,0,VALID,25.5707,VALID,75,VALID,0.388672,
2009-04-18, 01:00:04,VALID,1003.49,VALID,0,VALID,83.4828,VALID,0.100563,VALID,25.5123,VALID,75,VALID,0.220703,
2009-04-18, 01:01:04,VALID,1003.45,VALID,0,VALID,83.7651,VALID,0.100563,VALID,25.4344,VALID,75,VALID,0.233203,
2009-04-18, 01:02:04,VALID,1003.46,VALID,0,VALID,84.0474,VALID,0,VALID,25.376,VALID,71,VALID,0.364453,
2009-04-18, 01:03:04,VALID,1003.44,VALID,0,VALID,84.2152,VALID,0,VALID,25.4149,VALID,36,VALID,0.69375,
2009-04-18, 01:04:04,VALID,1003.42,VALID,0,VALID,84.2076,VALID,0.100563,VALID,25.3955,VALID,36,VALID,0.153516,
2009-04-18, 01:05:04,VALID,1003.41,VALID,0,VALID,84.3068,VALID,0.100563,VALID,25.4363,VALID,37,VALID,0.0539063,
2009-04-18, 01:06:04,VALID,1003.39,VALID,0,VALID,84.3602,VALID,0,VALID,25.3546,VALID,37,VALID,0.361719,
2009-04-18, 01:07:04,VALID,1003.39,VALID,0,VALID,84.4364,VALID,0.100563,VALID,25.376,VALID,351,VALID,0.668359,
2009-04-18, 01:08:04,VALID,1003.39,VALID,0,VALID,84.3144,VALID,0.100563,VALID,25.4149,VALID,356,VALID,0.357812,
2009-04-18, 01:09:04,VALID,1003.35,VALID,0,VALID,84.2839,VALID,0.100563,VALID,25.376,VALID,356,VALID,0,
2009-04-18, 01:10:04,VALID,1003.34,VALID,0,VALID,84.4059,VALID,0,VALID,25.376,VALID,360,VALID,0.380469,
2009-04-18, 01:11:04,VALID,1003.33,VALID,0,VALID,84.6882,VALID,0,VALID,25.376,VALID,7,VALID,0.0894531,
2009-04-18, 01:12:04,VALID,1003.34,VALID,0,VALID,84.6577,VALID,0.100563,VALID,25.2981,VALID,7,VALID,0.232031,
2009-04-18, 01:13:04,VALID,1003.32,VALID,0,VALID,84.8713,VALID,0.100563,VALID,25.1813,VALID,7,VALID,0.424219,
2009-04-18, 01:14:04,VALID,1003.35,VALID,0,VALID,85.5121,VALID,0.100563,VALID,25.045,VALID,7,VALID,0.059375,
2009-04-18, 01:15:04,VALID,1003.31,VALID,0,VALID,86.0461,VALID,0.100563,VALID,24.9866,VALID,7,VALID,0,
2009-04-18, 01:16:04,VALID,1003.34,VALID,0,VALID,86.3513,VALID,0,VALID,24.9087,VALID,7,VALID,0,
2009-04-18, 01:17:04,VALID,1003.31,VALID,0,VALID,86.9158,VALID,0,VALID,24.8503,VALID,234,VALID,0.578906,
2009-04-18, 01:18:04,VALID,1003.33,VALID,0,VALID,87.16,VALID,0.100563,VALID,24.7724,VALID,234,VALID,0,
2009-04-18, 01:19:04,VALID,1003.34,VALID,0,VALID,87.5719,VALID,0,VALID,24.714,VALID,234,VALID,0.305469,
2009-04-18, 01:20:04,VALID,1003.3,VALID,0,VALID,87.8771,VALID,0.100563,VALID,24.675,VALID,234,VALID,0.100391,
2009-04-18, 01:21:04,VALID,1003.33,VALID,0,VALID,88.1059,VALID,0.100563,VALID,24.5953,VALID,234,VALID,0.221484,
2009-04-18, 01:22:04,VALID,1003.3,VALID,0,VALID,88.2356,VALID,0.100563,VALID,24.5582,VALID,234,VALID,0.662109,
2009-04-18, 01:23:04,VALID,1003.3,VALID,0,VALID,88.2204,VALID,0.100563,VALID,24.5582,VALID,234,VALID,0.188672,
2009-04-18, 01:24:04,VALID,1003.32,VALID,0,VALID,88.3272,VALID,0,VALID,24.5582,VALID,114,VALID,0.597656,
2009-04-18, 01:25:04,VALID,1003.33,VALID,0,VALID,88.4416,VALID,0,VALID,24.5406,VALID,148,VALID,0.566406,
2009-04-18, 01:26:04,VALID,1003.35,VALID,0,VALID,88.5255,VALID,0,VALID,24.5406,VALID,149,VALID,0.298828,
2009-04-18, 01:27:04,VALID,1003.33,VALID,0,VALID,88.6094,VALID,0,VALID,24.4998,VALID,149,VALID,0.176563,
2009-04-18, 01:28:04,VALID,1003.33,VALID,0,VALID,88.6705,VALID,0.100563,VALID,24.4609,VALID,149,VALID,0.209375,
2009-04-18, 01:29:04,VALID,1003.32,VALID,0,VALID,88.7773,VALID,0.100563,VALID,24.4201,VALID,149,VALID,0.0398437,
2009-04-18, 01:30:04,VALID,1003.31,VALID,0,VALID,88.9299,VALID,0,VALID,24.4025,VALID,149,VALID,0.10625,
2009-04-18, 01:31:04,VALID,1003.3,VALID,0,VALID,88.9527,VALID,0,VALID,24.3246,VALID,149,VALID,0.251563,
2009-04-18, 01:32:04,VALID,1003.31,VALID,0,VALID,89.1435,VALID,0.100563,VALID,24.2662,VALID,149,VALID,0.255469,
2009-04-18, 01:33:04,VALID,1003.27,VALID,0,VALID,89.2808,VALID,0.100563,VALID,24.2468,VALID,149,VALID,0.262109,
2009-04-18, 01:34:04,VALID,1003.28,VALID,0,VALID,89.4257,VALID,0,VALID,24.1884,VALID,149,VALID,0.246875,
2009-04-18, 01:35:04,VALID,1003.27,VALID,0,VALID,89.6393,VALID,0,VALID,24.1494,VALID,149,VALID,0.243359,
2009-04-18, 01:36:04,VALID,1003.29,VALID,0,VALID,89.7233,VALID,0.100563,VALID,24.091,VALID,149,VALID,0.26875,
2009-04-18, 01:37:04,VALID,1003.26,VALID,0,VALID,89.9064,VALID,0,VALID,24.0326,VALID,149,VALID,0.4125,
2009-04-18, 01:38:04,VALID,1003.25,VALID,0,VALID,90.2039,VALID,0,VALID,23.9548,VALID,149,VALID,0.0929687,
2009-04-18, 01:39:04,VALID,1003.24,VALID,0,VALID,90.448,VALID,0.100563,VALID,23.8964,VALID,149,VALID,0.26875,
2009-04-18, 01:40:04,VALID,1003.24,VALID,0,VALID,90.6464,VALID,0.100563,VALID,23.8556,VALID,149,VALID,0.238672,
2009-04-18, 01:41:04,VALID,1003.26,VALID,0,VALID,90.7913,VALID,0,VALID,23.8009,VALID,149,VALID,0.395703,
2009-04-18, 01:42:04,VALID,1003.25,VALID,0,VALID,91.0507,VALID,0,VALID,23.7619,VALID,149,VALID,0.424219,
2009-04-18, 01:43:04,VALID,1003.24,VALID,0,VALID,91.3024,VALID,0,VALID,23.723,VALID,149,VALID,0.208203,
2009-04-18, 01:44:04,VALID,1003.24,VALID,0,VALID,91.4474,VALID,0,VALID,23.6646,VALID,149,VALID,0.385547,
2009-04-18, 01:45:04,VALID,1003.22,VALID,0,VALID,91.6229,VALID,0,VALID,23.6452,VALID,149,VALID,0.350391,
2009-04-18, 01:46:04,VALID,1003.21,VALID,0,VALID,91.8594,VALID,0,VALID,23.6062,VALID,149,VALID,0.112109,
2009-04-18, 01:47:04,VALID,1003.16,VALID,0,VALID,92.0501,VALID,0,VALID,23.585,VALID,149,VALID,0.0460938,
2009-04-18, 01:48:04,VALID,1003.18,VALID,0,VALID,92.1874,VALID,0,VALID,23.6257,VALID,149,VALID,0,
2009-04-18, 01:49:04,VALID,1003.14,VALID,0,VALID,92.3095,VALID,0,VALID,23.6239,VALID,149,VALID,0,
2009-04-18, 01:50:04,VALID,1003.13,VALID,0,VALID,92.4239,VALID,0,VALID,23.6257,VALID,149,VALID,0.167187,
2009-04-18, 01:51:04,VALID,1003.11,VALID,0,VALID,92.3934,VALID,0,VALID,23.6664,VALID,149,VALID,0.000390625,
2009-04-18, 01:52:04,VALID,1003.12,VALID,0,VALID,92.3476,VALID,0,VALID,23.6257,VALID,149,VALID,0.236328,
2009-04-18, 01:53:04,VALID,1003.1,VALID,0,VALID,92.3705,VALID,0,VALID,23.6062,VALID,149,VALID,0.217969,
2009-04-18, 01:54:04,VALID,1003.07,VALID,0,VALID,92.4239,VALID,0,VALID,23.6062,VALID,149,VALID,0.173828,
2009-04-18, 01:55:04,VALID,1003.07,VALID,0,VALID,92.3781,VALID,0,VALID,23.5868,VALID,147,VALID,0.422266,
2009-04-18, 01:56:04,VALID,1003.08,VALID,0,VALID,92.4239,VALID,0,VALID,23.5673,VALID,147,VALID,0.422656,
2009-04-18, 01:57:04,VALID,1003.09,VALID,0,VALID,92.4773,VALID,0,VALID,23.4877,VALID,147,VALID,0.326953,
2009-04-18, 01:58:04,VALID,1003.12,VALID,0,VALID,92.5307,VALID,0,VALID,23.4682,VALID,147,VALID,0.214062,
2009-04-18, 01:59:04,VALID,1003.11,VALID,0,VALID,92.6528,VALID,0,VALID,23.47,VALID,147,VALID,0.226953,
2009-04-18, 02:00:04,VALID,1003.15,VALID,0,VALID,92.7901,VALID,0,VALID,23.47,VALID,147,VALID,0.166797,
2009-04-18, 02:01:04,VALID,1003.13,VALID,0,VALID,92.8282,VALID,0,VALID,23.47,VALID,147,VALID,0.101953,
2009-04-18, 02:02:04,VALID,1003.15,VALID,0,VALID,92.9121,VALID,0,VALID,23.47,VALID,147,VALID,0.00078125,
2009-04-18, 02:03:04,VALID,1003.15,VALID,0,VALID,92.9732,VALID,0,VALID,23.47,VALID,146,VALID,0.299219,
2009-04-18, 02:04:04,VALID,1003.14,VALID,0,VALID,92.9961,VALID,0,VALID,23.47,VALID,146,VALID,0.489453,
2009-04-18, 02:05:04,VALID,1003.14,VALID,0,VALID,92.9503,VALID,0,VALID,23.4718,VALID,146,VALID,0.413281,
2009-04-18, 02:06:04,VALID,1003.14,VALID,0,VALID,93.0037,VALID,0,VALID,23.4116,VALID,146,VALID,0.335938,
2009-04-18, 02:07:04,VALID,1003.14,VALID,0,VALID,93.0571,VALID,0,VALID,23.3921,VALID,146,VALID,0.411328,
2009-04-18, 02:08:04,VALID,1003.14,VALID,0,VALID,93.1257,VALID,0,VALID,23.3709,VALID,35,VALID,0.448047,
2009-04-18, 02:09:04,VALID,1003.14,VALID,0,VALID,93.1105,VALID,0,VALID,23.3727,VALID,35,VALID,0.230469,
2009-04-18, 02:10:04,VALID,1003.12,VALID,0,VALID,93.1257,VALID,0,VALID,23.355,VALID,35,VALID,0.0269531,
2009-04-18, 02:11:04,VALID,1003.12,VALID,0,VALID,93.2249,VALID,0,VALID,23.3532,VALID,35,VALID,0,
2009-04-18, 02:12:04,VALID,1003.08,VALID,0,VALID,93.2249,VALID,0,VALID,23.3143,VALID,35,VALID,0,
2009-04-18, 02:13:04,VALID,1003.12,VALID,0,VALID,93.2325,VALID,0,VALID,23.2948,VALID,35,VALID,0,
2009-04-18, 02:14:04,VALID,1003.11,VALID,0,VALID,93.3241,VALID,0,VALID,23.2541,VALID,35,VALID,0.0382813,
2009-04-18, 02:15:04,VALID,1003.12,VALID,0,VALID,93.408,VALID,0,VALID,23.2948,VALID,35,VALID,0.0078125,
2009-04-18, 02:16:04,VALID,1003.15,VALID,0,VALID,93.4767,VALID,0,VALID,23.2966,VALID,30,VALID,0.389453,
2009-04-18, 02:17:04,VALID,1003.14,VALID,0,VALID,93.5072,VALID,0,VALID,23.2948,VALID,26,VALID,0.369531,
2009-04-18, 02:18:04,VALID,1003.14,VALID,0,VALID,93.4843,VALID,0,VALID,23.2948,VALID,26,VALID,0.369141,
2009-04-18, 02:19:04,VALID,1003.14,VALID,0,VALID,93.5758,VALID,0,VALID,23.2948,VALID,26,VALID,0.341406,
2009-04-18, 02:20:04,VALID,1003.11,VALID,0,VALID,93.4919,VALID,0,VALID,23.2754,VALID,26,VALID,0.501562,
2009-04-18, 02:21:04,VALID,1003.1,VALID,0,VALID,93.4767,VALID,0,VALID,23.2559,VALID,26,VALID,0.589844,
2009-04-18, 02:22:04,VALID,1003.1,VALID,0,VALID,93.4996,VALID,0,VALID,23.217,VALID,26,VALID,0.330469,
2009-04-18, 02:23:04,VALID,1003.06,VALID,0,VALID,93.5224,VALID,0,VALID,23.1763,VALID,26,VALID,0.215625,
2009-04-18, 02:24:04,VALID,1003.04,VALID,0,VALID,93.5148,VALID,0,VALID,23.1586,VALID,26,VALID,0.359375,
2009-04-18, 02:25:04,VALID,1003.05,VALID,0,VALID,93.5453,VALID,0,VALID,23.1586,VALID,26,VALID,0.241016,
2009-04-18, 02:26:04,VALID,1003.05,VALID,0,VALID,93.5911,VALID,0,VALID,23.1391,VALID,26,VALID,0.357031,
2009-04-18, 02:27:04,VALID,1003.02,VALID,0,VALID,93.6369,VALID,0,VALID,23.1391,VALID,26,VALID,0.308984,
2009-04-18, 02:28:04,VALID,1002.99,VALID,0,VALID,93.6445,VALID,0,VALID,23.1002,VALID,26,VALID,0.44375,
2009-04-18, 02:29:04,VALID,1002.99,VALID,0,VALID,93.675,VALID,0,VALID,23.1002,VALID,26,VALID,0.403906,
2009-04-18, 02:30:04,VALID,1002.99,VALID,0,VALID,93.6979,VALID,0,VALID,23.0613,VALID,26,VALID,0.41875,
2009-04-18, 02:31:04,VALID,1002.99,VALID,0,VALID,93.7818,VALID,0,VALID,23.0595,VALID,26,VALID,0.429688,
2009-04-18, 02:32:04,VALID,1002.98,VALID,0,VALID,93.881,VALID,0,VALID,23.0807,VALID,22,VALID,0.502344,
2009-04-18, 02:33:04,VALID,1002.99,VALID,0,VALID,94.0565,VALID,0,VALID,23.0984,VALID,18,VALID,0.401953,
2009-04-18, 02:34:04,VALID,1003.05,VALID,0,VALID,94.087,VALID,0,VALID,23.1586,VALID,6,VALID,0.343359,
2009-04-18, 02:35:04,VALID,1003.03,VALID,0,VALID,93.9878,VALID,0.100563,VALID,23.1179,VALID,6,VALID,0.35625,
2009-04-18, 02:36:04,VALID,1003.02,VALID,0,VALID,93.9573,VALID,0,VALID,23.1002,VALID,6,VALID,0.177734,
2009-04-18, 02:37:04,VALID,1003.05,VALID,0,VALID,94.0259,VALID,0,VALID,23.1197,VALID,355,VALID,0.516016,
2009-04-18, 02:38:04,VALID,1003.05,VALID,0,VALID,93.9954,VALID,0.100563,VALID,23.079,VALID,349,VALID,0.226563,
2009-04-18, 02:39:04,VALID,1003.11,VALID,0,VALID,93.9878,VALID,0.100563,VALID,23.079,VALID,349,VALID,0.513281,
2009-04-18, 02:40:04,VALID,1003.1,VALID,0,VALID,94.087,VALID,0,VALID,23.079,VALID,349,VALID,0.122266,
2009-04-18, 02:41:04,VALID,1003.12,VALID,0,VALID,94.1175,VALID,0,VALID,23.1391,VALID,349,VALID,0.288281,
2009-04-18, 02:42:04,VALID,1003.15,VALID,0,VALID,94.087,VALID,0,VALID,23.1179,VALID,349,VALID,0,
2009-04-18, 02:43:04,VALID,1003.14,VALID,0,VALID,94.1251,VALID,0,VALID,23.1197,VALID,349,VALID,0.0328125,
2009-04-18, 02:44:04,VALID,1003.15,VALID,0,VALID,94.1709,VALID,0,VALID,23.1391,VALID,349,VALID,0.00195313,
2009-04-18, 02:45:04,VALID,1003.13,VALID,0,VALID,94.1633,VALID,0,VALID,23.1586,VALID,349,VALID,0.0617188,
2009-04-18, 02:46:04,VALID,1003.16,VALID,0,VALID,94.1709,VALID,0,VALID,23.1568,VALID,349,VALID,0,
2009-04-18, 02:47:04,VALID,1003.15,VALID,0,VALID,94.1633,VALID,0,VALID,23.1568,VALID,349,VALID,0,
2009-04-18, 02:48:04,VALID,1003.18,VALID,0,VALID,94.1709,VALID,0,VALID,23.178,VALID,349,VALID,0,
2009-04-18, 02:49:04,VALID,1003.15,VALID,0,VALID,94.1709,VALID,0,VALID,23.1993,VALID,349,VALID,0.184766,
2009-04-18, 02:50:04,VALID,1003.17,VALID,0,VALID,94.1785,VALID,0,VALID,23.1586,VALID,349,VALID,0.0164062,
2009-04-18, 02:51:04,VALID,1003.18,VALID,0,VALID,94.2319,VALID,0,VALID,23.1568,VALID,349,VALID,0.257422,
2009-04-18, 02:52:04,VALID,1003.2,VALID,0,VALID,94.2319,VALID,0,VALID,23.1957,VALID,349,VALID,0.144141,
2009-04-18, 02:53:04,VALID,1003.23,VALID,0,VALID,94.2777,VALID,0,VALID,23.1975,VALID,349,VALID,0.265234,
2009-04-18, 02:54:04,VALID,1003.2,VALID,0,VALID,94.2548,VALID,0,VALID,23.1763,VALID,23,VALID,0.298438,
2009-04-18, 02:55:04,VALID,1003.23,VALID,0,VALID,94.2624,VALID,0,VALID,23.1568,VALID,23,VALID,0.154297,
2009-04-18, 02:56:04,VALID,1003.24,VALID,0,VALID,94.2396,VALID,0,VALID,23.1374,VALID,42,VALID,0.559766,
2009-04-18, 02:57:04,VALID,1003.26,VALID,0,VALID,94.3769,VALID,0,VALID,23.1975,VALID,52,VALID,0.316016,
2009-04-18, 02:58:04,VALID,1003.28,VALID,0,VALID,94.415,VALID,0,VALID,23.2347,VALID,52,VALID,0.261328,
2009-04-18, 02:59:04,VALID,1003.27,VALID,0,VALID,94.4837,VALID,0,VALID,23.2771,VALID,52,VALID,0.291797,
2009-04-18, 03:00:04,VALID,1003.26,VALID,0,VALID,94.5066,VALID,0,VALID,23.2931,VALID,52,VALID,0.193359,
2009-04-18, 03:01:04,VALID,1003.29,VALID,0,VALID,94.5142,VALID,0.100563,VALID,23.3514,VALID,73,VALID,0.405859,
2009-04-18, 03:02:04,VALID,1003.31,VALID,0,VALID,94.5905,VALID,0,VALID,23.3904,VALID,73,VALID,0.0824219,
2009-04-18, 03:03:04,VALID,1003.31,VALID,0,VALID,94.6286,VALID,0,VALID,23.4894,VALID,73,VALID,0.363672,
2009-04-18, 03:04:04,VALID,1003.34,VALID,0,VALID,94.6515,VALID,0,VALID,23.5071,VALID,73,VALID,0.311719,
2009-04-18, 03:05:04,VALID,1003.34,VALID,0,VALID,94.5981,VALID,0,VALID,23.5284,VALID,73,VALID,0.0632813,
2009-04-18, 03:06:04,VALID,1003.37,VALID,0,VALID,94.3998,VALID,0,VALID,23.4894,VALID,73,VALID,0,
2009-04-18, 03:07:04,VALID,1003.32,VALID,0,VALID,94.3235,VALID,0,VALID,23.4311,VALID,73,VALID,0,
2009-04-18, 03:08:04,VALID,1003.35,VALID,0,VALID,94.415,VALID,0,VALID,23.4311,VALID,73,VALID,0.14375,
2009-04-18, 03:09:04,VALID,1003.33,VALID,0,VALID,94.3692,VALID,0,VALID,23.4505,VALID,73,VALID,0.340625,
2009-04-18, 03:10:04,VALID,1003.34,VALID,0,VALID,94.2777,VALID,0,VALID,23.4505,VALID,72,VALID,0.0824219,
2009-04-18, 03:11:04,VALID,1003.35,VALID,0,VALID,94.2167,VALID,0,VALID,23.4505,VALID,72,VALID,0.0453125,
2009-04-18, 03:12:04,VALID,1003.36,VALID,0,VALID,94.1709,VALID,0,VALID,23.4116,VALID,72,VALID,0,
2009-04-18, 03:13:04,VALID,1003.35,VALID,0,VALID,94.1404,VALID,0,VALID,23.4311,VALID,72,VALID,0.00234375,
2009-04-18, 03:14:04,VALID,1003.39,VALID,0,VALID,94.1328,VALID,0,VALID,23.4328,VALID,72,VALID,0.0453125,
2009-04-18, 03:15:04,VALID,1003.4,VALID,0,VALID,94.0717,VALID,0,VALID,23.4116,VALID,72,VALID,0,
2009-04-18, 03:16:04,VALID,1003.41,VALID,0,VALID,94.0336,VALID,0,VALID,23.3709,VALID,72,VALID,0.196094,
2009-04-18, 03:17:04,VALID,1003.41,VALID,0,VALID,94.0412,VALID,0,VALID,23.3709,VALID,72,VALID,0.0730469,
2009-04-18, 03:18:04,VALID,1003.41,VALID,0,VALID,94.0717,VALID,0,VALID,23.3709,VALID,72,VALID,0,
2009-04-18, 03:19:04,VALID,1003.38,VALID,0,VALID,94.2548,VALID,0,VALID,23.4116,VALID,72,VALID,0.41875,
2009-04-18, 03:20:04,VALID,1003.35,VALID,0,VALID,94.2548,VALID,0,VALID,23.4505,VALID,72,VALID,0.0160156,
2009-04-18, 03:21:04,VALID,1003.31,VALID,0,VALID,94.1709,VALID,0,VALID,23.4311,VALID,72,VALID,0.121094,
2009-04-18, 03:22:04,VALID,1003.34,VALID,0,VALID,94.1251,VALID,0,VALID,23.4116,VALID,72,VALID,0.206641,
2009-04-18, 03:23:04,VALID,1003.31,VALID,0,VALID,94.0641,VALID,0,VALID,23.3709,VALID,72,VALID,0.0546875,
2009-04-18, 03:24:04,VALID,1003.32,VALID,0,VALID,94.1633,VALID,0,VALID,23.4116,VALID,35,VALID,0.296484,
2009-04-18, 03:25:04,VALID,1003.26,VALID,0,VALID,94.1633,VALID,0,VALID,23.3904,VALID,26,VALID,0.264453,
2009-04-18, 03:26:04,VALID,1003.28,VALID,0,VALID,94.1785,VALID,0,VALID,23.4311,VALID,26,VALID,0.419922,
2009-04-18, 03:27:04,VALID,1003.25,VALID,0,VALID,94.0107,VALID,0,VALID,23.3709,VALID,16,VALID,0.367188,
2009-04-18, 03:28:04,VALID,1003.26,VALID,0,VALID,93.9115,VALID,0,VALID,23.3143,VALID,16,VALID,0.363281,
2009-04-18, 03:29:04,VALID,1003.26,VALID,0,VALID,93.8505,VALID,0,VALID,23.2736,VALID,16,VALID,0.466797,
2009-04-18, 03:30:04,VALID,1003.28,VALID,0,VALID,93.8734,VALID,0,VALID,23.2559,VALID,16,VALID,0.453516,
2009-04-18, 03:31:04,VALID,1003.3,VALID,0,VALID,93.9191,VALID,0,VALID,23.2364,VALID,16,VALID,0.394531,
2009-04-18, 03:32:04,VALID,1003.28,VALID,0,VALID,93.942,VALID,0,VALID,23.217,VALID,16,VALID,0.414844,
2009-04-18, 03:33:04,VALID,1003.32,VALID,0,VALID,94.0717,VALID,0,VALID,23.2364,VALID,16,VALID,0.176172,
2009-04-18, 03:34:04,VALID,1003.31,VALID,0,VALID,94.1404,VALID,0,VALID,23.2364,VALID,16,VALID,0.396484,
2009-04-18, 03:35:04,VALID,1003.33,VALID,0,VALID,94.1633,VALID,0,VALID,23.2364,VALID,16,VALID,0.328125,
2009-04-18, 03:36:04,VALID,1003.32,VALID,0,VALID,94.2472,VALID,0,VALID,23.2559,VALID,16,VALID,0.09375,
2009-04-18, 03:37:04,VALID,1003.36,VALID,0,VALID,94.293,VALID,0,VALID,23.2754,VALID,16,VALID,0.0488281,
2009-04-18, 03:38:04,VALID,1003.37,VALID,0,VALID,94.3692,VALID,0,VALID,23.3337,VALID,8,VALID,0.4375,
2009-04-18, 03:39:04,VALID,1003.36,VALID,0,VALID,94.3998,VALID,0,VALID,23.332,VALID,1,VALID,0.448047,
2009-04-18, 03:40:04,VALID,1003.39,VALID,0,VALID,94.3998,VALID,0,VALID,23.3727,VALID,1,VALID,0.433594,
2009-04-18, 03:41:04,VALID,1003.37,VALID,0,VALID,94.3769,VALID,0,VALID,23.3727,VALID,1,VALID,0.301172,
2009-04-18, 03:42:04,VALID,1003.39,VALID,0,VALID,94.3158,VALID,0,VALID,23.3904,VALID,1,VALID,0.0238281,
2009-04-18, 03:43:04,VALID,1003.38,VALID,0,VALID,94.2853,VALID,0,VALID,23.3921,VALID,1,VALID,0.139844,
2009-04-18, 03:44:04,VALID,1003.42,VALID,0,VALID,94.2472,VALID,0,VALID,23.4116,VALID,1,VALID,0,
2009-04-18, 03:45:04,VALID,1003.41,VALID,0,VALID,94.1862,VALID,0,VALID,23.4116,VALID,343,VALID,0.189063,